Weather History for Zephyrhills, FL

Change the Weather History Date:

Wednesday, December 5, 2012

  Actual Average (KPCM) Record (KPCM)
Temperature  
Mean Temperature 66 °F -  
Max Temperature 80 °F 76 °F 87 °F (1978)
Min Temperature 51 °F 51 °F 30 °F (1974)
Growing Degree Days 16 (Base 50)    
Moisture  
Dew Point 55 °F    
Average Humidity 75    
Maximum Humidity 100    
Minimum Humidity 30    
Precipitation  
Precipitation 0.00 in - - ()
Sea Level Pressure  
Sea Level Pressure 30.13 in    
Wind  
Wind Speed 0 mph (NE)    
Max Wind Speed 10 mph    
Max Gust Speed 16 mph    
Visibility 9 miles    
Events      
Averages and records for this station are not official NWS values.
T = Trace of Precipitation, MM = Missing Value Source: NWS Daily Summary

Daily Weather History Graph

Daily Weather History Graph

Search for Another Location

Airport:

Trip Planner

Search our weather history database for the weather conditions in past years. The results will help you decide how hot, cold, wet, or windy it might be!

Date:

Astronomy

Dec. 05, 2012 Rise Set
Actual Time 7:06 AM EST 5:32 PM EST
Civil Twilight 6:40 AM EST 5:58 PM EST
Nautical Twilight 6:11 AM EST 6:27 PM EST
Astronomical Twilight 5:43 AM EST 6:55 PM EST
Moon 11:55 PM EST (12/5) 11:51 AM EST (12/5)
Length of Visible Light 11h 17m
Length of Day
10h 25m
Waning Gibbous, 60% of the Moon is Illuminated
Dec 5
Waning Gibbous
Dec 6
Last Quarter
Dec 13
New
Dec 20
First Quarter
Dec 28
Full

Hourly Weather History & Observations

Time (EST) Temp. Dew Point Humidity Pressure Visibility Wind Dir Wind Speed Gust Speed Precip Events Conditions
12:15 AM 53.6 °F 51.8 °F 94% 30.23 in 10.0 mi Calm Calm - N/A   Scattered Clouds
12:35 AM 53.6 °F 51.8 °F 94% 30.23 in 10.0 mi Calm Calm - N/A   Scattered Clouds
12:55 AM 53.6 °F 53.6 °F 100% 30.22 in 10.0 mi Calm Calm - N/A   Scattered Clouds
1:15 AM 53.6 °F 51.8 °F 94% 30.21 in 10.0 mi Calm Calm - N/A   Scattered Clouds
1:35 AM 53.6 °F 53.6 °F 100% 30.20 in 10.0 mi Calm Calm - N/A   Scattered Clouds
1:55 AM 51.8 °F 51.8 °F 100% 30.20 in 10.0 mi Calm Calm - N/A   Clear
2:15 AM 53.6 °F 53.6 °F 100% 30.20 in 7.0 mi Calm Calm - N/A   Clear
2:55 AM 51.8 °F 51.8 °F 100% 30.19 in 7.0 mi Calm Calm - N/A   Mostly Cloudy
3:15 AM 53.6 °F 53.6 °F 100% 30.19 in 7.0 mi Calm Calm - N/A   Scattered Clouds
3:35 AM 53.6 °F 53.6 °F 100% 30.18 in 7.0 mi Calm Calm - N/A   Mostly Cloudy
3:55 AM 53.6 °F 51.8 °F 94% 30.18 in 7.0 mi Calm Calm - N/A   Mostly Cloudy
4:15 AM 53.6 °F 51.8 °F 94% 30.18 in 5.0 mi Calm Calm - N/A   Mostly Cloudy
4:35 AM 53.6 °F 53.6 °F 100% 30.17 in 7.0 mi Calm Calm - N/A   Mostly Cloudy
4:55 AM 53.6 °F 53.6 °F 100% 30.17 in 7.0 mi Calm Calm - N/A   Scattered Clouds
5:15 AM 51.8 °F 51.8 °F 100% 30.17 in 5.0 mi Calm Calm - N/A   Clear
5:35 AM 51.8 °F 51.8 °F 100% 30.17 in 4.0 mi Calm Calm - N/A   Clear
5:55 AM 53.6 °F 53.6 °F 100% 30.17 in 4.0 mi Calm Calm - N/A   Clear
6:15 AM 51.8 °F 51.8 °F 100% 30.17 in 4.0 mi Calm Calm - N/A   Scattered Clouds
6:35 AM 51.8 °F 51.8 °F 100% 30.17 in 7.0 mi Calm Calm - N/A   Mostly Cloudy
6:55 AM 51.8 °F 51.8 °F 100% 30.18 in 7.0 mi Calm Calm - N/A   Overcast
7:15 AM 53.6 °F 53.6 °F 100% 30.18 in 7.0 mi Calm Calm - N/A   Overcast
7:35 AM 51.8 °F 51.8 °F 100% 30.19 in 7.0 mi Calm Calm - N/A   Scattered Clouds
7:55 AM 55.4 °F 55.4 °F 100% 30.19 in 7.0 mi Calm Calm - N/A   Scattered Clouds
9:35 AM 69.8 °F 60.8 °F 73% 30.21 in 10.0 mi Calm Calm - N/A   Scattered Clouds
9:55 AM 71.6 °F 59.0 °F 64% 30.21 in 10.0 mi Calm Calm - N/A   Clear
10:15 AM 71.6 °F 59.0 °F 64% 30.20 in 10.0 mi Calm Calm - N/A   Clear
10:35 AM 73.4 °F 59.0 °F 61% 30.20 in 10.0 mi Calm Calm - N/A   Clear
10:55 AM 75.2 °F 57.2 °F 53% 30.19 in 10.0 mi Calm Calm - N/A   Clear
11:15 AM 77.0 °F 55.4 °F 47% 30.18 in 10.0 mi Calm Calm - N/A   Clear
11:35 AM 77.0 °F 53.6 °F 44% 30.17 in 10.0 mi Calm Calm - N/A   Scattered Clouds
11:55 AM 78.8 °F 53.6 °F 42% 30.16 in 10.0 mi Calm Calm - N/A   Scattered Clouds
12:15 PM 78.8 °F 50.0 °F 36% 30.15 in 10.0 mi Calm Calm - N/A   Scattered Clouds
12:35 PM 77.0 °F 51.8 °F 41% 30.14 in 10.0 mi Calm Calm - N/A   Clear
12:55 PM 78.8 °F 50.0 °F 36% 30.13 in 10.0 mi Calm Calm - N/A   Clear
1:15 PM 80.6 °F 48.2 °F 32% 30.12 in 10.0 mi Calm Calm - N/A   Clear
1:35 PM 80.6 °F 46.4 °F 30% 30.10 in 10.0 mi Calm Calm - N/A   Clear
1:55 PM 78.8 °F 50.0 °F 36% 30.10 in 10.0 mi Calm Calm - N/A   Mostly Cloudy
2:15 PM 80.6 °F 50.0 °F 34% 30.09 in 10.0 mi Calm Calm - N/A   Overcast
2:35 PM 77.0 °F 51.8 °F 41% 30.08 in 10.0 mi Calm Calm - N/A   Mostly Cloudy
2:55 PM 75.2 °F 51.8 °F 44% 30.07 in 10.0 mi Calm Calm - N/A   Scattered Clouds
3:15 PM 77.0 °F 51.8 °F 41% 30.07 in 10.0 mi NNE 3.5 mph - N/A   Scattered Clouds
3:35 PM 78.8 °F 50.0 °F 36% 30.06 in 10.0 mi Calm Calm - N/A   Clear
3:55 PM 77.0 °F 51.8 °F 41% 30.06 in 10.0 mi Calm Calm - N/A   Scattered Clouds
4:15 PM 75.2 °F 51.8 °F 44% 30.06 in 10.0 mi Calm Calm - N/A   Scattered Clouds
4:35 PM 73.4 °F 51.8 °F 47% 30.06 in 10.0 mi Calm Calm - N/A   Clear
4:55 PM 71.6 °F 53.6 °F 53% 30.06 in 10.0 mi Calm Calm - N/A   Scattered Clouds
5:15 PM 71.6 °F 53.6 °F 53% 30.06 in 10.0 mi Calm Calm - N/A   Mostly Cloudy
5:35 PM 69.8 °F 53.6 °F 56% 30.07 in 10.0 mi Calm Calm - N/A   Mostly Cloudy
5:55 PM 69.8 °F 53.6 °F 56% 30.07 in 10.0 mi Calm Calm - N/A   Mostly Cloudy
6:15 PM 69.8 °F 55.4 °F 60% 30.07 in 10.0 mi Calm Calm - N/A   Overcast
6:35 PM 69.8 °F 57.2 °F 64% 30.07 in 10.0 mi Calm Calm - N/A   Overcast
6:55 PM 69.8 °F 59.0 °F 68% 30.08 in 10.0 mi Calm Calm - N/A   Overcast
7:15 PM 69.8 °F 59.0 °F 68% 30.08 in 10.0 mi NE 10.4 mph 16.1 mph N/A   Overcast
7:35 PM 68.0 °F 60.8 °F 78% 30.09 in 10.0 mi NE 10.4 mph - N/A   Overcast
7:55 PM 68.0 °F 60.8 °F 78% 30.09 in 10.0 mi NE 9.2 mph - N/A   Overcast
8:15 PM 68.0 °F 60.8 °F 78% 30.09 in 10.0 mi Calm Calm - N/A   Overcast
8:35 PM 66.2 °F 62.6 °F 88% 30.10 in 10.0 mi Calm Calm - N/A   Mostly Cloudy
8:55 PM 66.2 °F 62.6 °F 88% 30.10 in 10.0 mi Calm Calm - N/A   Overcast
9:15 PM 64.4 °F 62.6 °F 94% 30.10 in 10.0 mi Calm Calm - N/A   Light Drizzle
9:35 PM 64.4 °F 62.6 °F 94% 30.09 in 10.0 mi Calm Calm - N/A   Overcast
9:55 PM 64.4 °F 62.6 °F 94% 30.09 in 10.0 mi Calm Calm - N/A   Mostly Cloudy
10:15 PM 62.6 °F 62.6 °F 100% 30.09 in 10.0 mi Calm Calm - N/A   Scattered Clouds
10:35 PM 62.6 °F 60.8 °F 94% 30.09 in 10.0 mi Calm Calm - N/A   Scattered Clouds
10:55 PM 62.6 °F 60.8 °F 94% 30.09 in 10.0 mi Calm Calm - N/A   Clear
11:15 PM 60.8 °F 60.8 °F 100% 30.08 in 10.0 mi Calm Calm - N/A   Clear
11:35 PM 60.8 °F 60.8 °F 100% 30.08 in 10.0 mi Calm Calm - N/A   Scattered Clouds
11:55 PM 60.8 °F 60.8 °F 100% 30.08 in 10.0 mi Calm Calm - N/A   Scattered Clouds